• In Czech Republic
  • List of Countries
  • For 7 days
  • Water Temperature
  • Satellite Maps
  • Weather Map
  • Weather Widgets
  • user-avatar
    Login

    Hourly Weather Sondrio

    Today, 19 July, Thursday

    Time Temperature Precipitation Wind Pressure Humidity
    00:00 +21°C° 0.1 mm 2 mps 732 mmHg 72%
    01:00 +20°C° 0.1 mm 2 mps 732 mmHg 72%
    02:00 +20°C° 0.1 mm 2 mps 732 mmHg 72%
    03:00 +20°C° 0.1 mm 2 mps 732 mmHg 72%
    04:00 +19°C° 0.1 mm 2 mps 732 mmHg 72%
    05:00 +21°C° 0.1 mm 2 mps 732 mmHg 70%
    06:00 +23°C° 0.1 mm 2 mps 732 mmHg 67%
    07:00 +24°C° 0.1 mm 1 mps 732 mmHg 64%
    08:00 +26°C° 0 mm 1 mps 732 mmHg 56%
    09:00 +28°C° 0 mm 1 mps 732 mmHg 49%
    10:00 +30°C° 0 mm 1 mps 732 mmHg 41%
    11:00 +30°C° 0 mm 1 mps 732 mmHg 41%
    12:00 +31°C° 0 mm 1 mps 732 mmHg 41%
    13:00 +32°C° 0 mm 1 mps 732 mmHg 40%
    14:00 +31°C° 0.4 mm 2 mps 732 mmHg 44%
    15:00 +31°C° 0.4 mm 2 mps 732 mmHg 48%
    16:00 +31°C° 0.4 mm 2 mps 731 mmHg 52%
    17:00 +29°C° 0.8 mm 1 mps 731 mmHg 60%
    18:00 +28°C° 0.8 mm 1 mps 731 mmHg 68%
    19:00 +27°C° 0.8 mm 1 mps 731 mmHg 76%
    20:00 +26°C° 0.4 mm 1 mps 732 mmHg 79%
    21:00 +24°C° 0.4 mm 1 mps 732 mmHg 83%
    22:00 +23°C° 0.4 mm 1 mps 732 mmHg 86%
    23:00 +22°C° 0.2 mm 1 mps 732 mmHg 86%

    Tomorrow, 20 July, Friday

    Time Temperature Precipitation Wind Pressure Humidity
    00:00 +22°C° 0.2 mm 1 mps 732 mmHg 87%
    01:00 +21°C° 0.2 mm 1 mps 732 mmHg 87%
    02:00 +21°C° 0.1 mm 1 mps 732 mmHg 87%
    03:00 +21°C° 0.1 mm 1 mps 732 mmHg 87%
    04:00 +21°C° 0.1 mm 1 mps 732 mmHg 87%
    05:00 +22°C° 0.2 mm 1 mps 732 mmHg 85%
    06:00 +23°C° 0.2 mm 1 mps 732 mmHg 83%
    07:00 +24°C° 0.2 mm 1 mps 732 mmHg 81%
    08:00 +26°C° 0.6 mm 1 mps 732 mmHg 77%
    09:00 +27°C° 0.6 mm 1 mps 732 mmHg 73%
    10:00 +28°C° 0.6 mm 1 mps 732 mmHg 69%
    11:00 +28°C° 1.1 mm 1 mps 731 mmHg 68%
    12:00 +29°C° 1.1 mm 1 mps 731 mmHg 68%
    13:00 +29°C° 1.1 mm 1 mps 731 mmHg 67%
    14:00 +29°C° 1.4 mm 1 mps 731 mmHg 69%
    15:00 +29°C° 1.4 mm 1 mps 731 mmHg 71%
    16:00 +29°C° 1.4 mm 1 mps 730 mmHg 73%
    17:00 +28°C° 1.6 mm 1 mps 730 mmHg 77%
    18:00 +27°C° 1.6 mm 1 mps 730 mmHg 82%
    19:00 +26°C° 1.6 mm 1 mps 730 mmHg 86%
    20:00 +25°C° 1.2 mm 1 mps 730 mmHg 88%
    21:00 +24°C° 1.2 mm 1 mps 730 mmHg 90%
    22:00 +23°C° 1.2 mm 1 mps 731 mmHg 92%
    23:00 +22°C° 1.2 mm 1 mps 730 mmHg 93%

    Day after tomorrow, 21 July, Saturday

    Time Temperature Precipitation Wind Pressure Humidity
    00:00 +22°C° 1.2 mm 1 mps 730 mmHg 94%
    01:00 +22°C° 1.2 mm 1 mps 730 mmHg 95%
    02:00 +22°C° 1.7 mm 1 mps 730 mmHg 94%
    03:00 +21°C° 1.7 mm 1 mps 730 mmHg 94%
    04:00 +21°C° 1.7 mm 1 mps 730 mmHg 94%
    05:00 +22°C° 1.6 mm 1 mps 730 mmHg 93%
    06:00 +22°C° 1.6 mm 1 mps 730 mmHg 93%
    07:00 +22°C° 1.6 mm 1 mps 730 mmHg 92%
    08:00 +23°C° 0.8 mm 1 mps 730 mmHg 89%
    09:00 +24°C° 0.8 mm 1 mps 730 mmHg 86%
    10:00 +25°C° 0.8 mm 1 mps 730 mmHg 83%
    11:00 +25°C° 1 mm 1 mps 730 mmHg 81%
    12:00 +26°C° 1 mm 1 mps 730 mmHg 79%
    13:00 +26°C° 1 mm 1 mps 730 mmHg 77%
    14:00 +26°C° 1.4 mm 1 mps 729 mmHg 77%
    15:00 +26°C° 1.4 mm 1 mps 729 mmHg 77%
    16:00 +26°C° 1.4 mm 1 mps 729 mmHg 77%
    17:00 +26°C° 0.9 mm 1 mps 729 mmHg 79%
    18:00 +25°C° 0.9 mm 1 mps 729 mmHg 81%
    19:00 +25°C° 0.9 mm 1 mps 729 mmHg 83%
    20:00 +24°C° 0.2 mm 1 mps 730 mmHg 85%
    21:00 +23°C° 0.2 mm 2 mps 730 mmHg 87%
    22:00 +21°C° 0.2 mm 2 mps 730 mmHg 89%
    23:00 +20°C° 0.1 mm 2 mps 730 mmHg 88%

    22 July, Sunday

    Time Temperature Precipitation Wind Pressure Humidity
    00:00 +20°C° 0.1 mm 2 mps 730 mmHg 88%
    01:00 +20°C° 0.1 mm 2 mps 730 mmHg 88%
    02:00 +20°C° 0.2 mm 2 mps 730 mmHg 88%
    03:00 +19°C° 0.2 mm 2 mps 729 mmHg 88%
    04:00 +19°C° 0.2 mm 2 mps 729 mmHg 88%
    05:00 +20°C° 0.2 mm 2 mps 729 mmHg 88%
    06:00 +20°C° 0.2 mm 2 mps 729 mmHg 87%
    07:00 +21°C° 0.2 mm 2 mps 729 mmHg 87%
    08:00 +23°C° 0.6 mm 2 mps 729 mmHg 82%
    09:00 +24°C° 0.6 mm 2 mps 729 mmHg 78%
    10:00 +25°C° 0.6 mm 2 mps 729 mmHg 73%
    11:00 +26°C° 0.9 mm 2 mps 729 mmHg 71%
    12:00 +27°C° 0.9 mm 2 mps 729 mmHg 69%
    13:00 +27°C° 0.9 mm 2 mps 729 mmHg 67%
    14:00 +27°C° 1.1 mm 2 mps 729 mmHg 69%
    15:00 +27°C° 1.1 mm 2 mps 729 mmHg 70%
    16:00 +27°C° 1.1 mm 2 mps 729 mmHg 71%
    17:00 +26°C° 0.7 mm 2 mps 729 mmHg 75%
    18:00 +25°C° 0.7 mm 2 mps 729 mmHg 79%
    19:00 +24°C° 0.7 mm 2 mps 729 mmHg 83%
    20:00 +22°C° 0.1 mm 3 mps 730 mmHg 85%
    21:00 +21°C° 0.1 mm 3 mps 730 mmHg 87%
    22:00 +19°C° 0.1 mm 3 mps 731 mmHg 89%
    23:00 +19°C° 0 mm 3 mps 731 mmHg 89%

    23 July, Monday

    Time Temperature Precipitation Wind Pressure Humidity
    00:00 +19°C° 0 mm 3 mps 731 mmHg 88%
    01:00 +18°C° 0 mm 3 mps 731 mmHg 88%
    02:00 +18°C° 0 mm 3 mps 731 mmHg 87%
    03:00 +18°C° 0 mm 3 mps 731 mmHg 87%
    04:00 +18°C° 0 mm 3 mps 731 mmHg 87%
    05:00 +18°C° 0 mm 3 mps 731 mmHg 84%
    06:00 +19°C° 0 mm 3 mps 731 mmHg 81%
    07:00 +20°C° 0 mm 3 mps 731 mmHg 79%
    08:00 +24°C° 0 mm 3 mps 731 mmHg 69%
    09:00 +26°C° 0 mm 2 mps 731 mmHg 59%
    10:00 +28°C° 0 mm 2 mps 731 mmHg 50%
    11:00 +29°C° 0 mm 2 mps 731 mmHg 47%
    12:00 +30°C° 0 mm 2 mps 730 mmHg 44%
    13:00 +31°C° 0 mm 2 mps 730 mmHg 41%
    14:00 +31°C° 0 mm 2 mps 730 mmHg 43%
    15:00 +31°C° 0 mm 2 mps 730 mmHg 44%
    16:00 +30°C° 0 mm 3 mps 730 mmHg 46%
    17:00 +29°C° 0 mm 2 mps 730 mmHg 54%
    18:00 +28°C° 0 mm 2 mps 730 mmHg 62%
    19:00 +27°C° 0 mm 2 mps 730 mmHg 70%
    20:00 +25°C° 0 mm 2 mps 730 mmHg 75%
    21:00 +23°C° 0 mm 2 mps 731 mmHg 80%
    22:00 +22°C° 0 mm 1 mps 731 mmHg 84%
    23:00 +21°C° 0 mm 1 mps 731 mmHg 84%

    24 July, Tuesday

    Time Temperature Precipitation Wind Pressure Humidity
    00:00 +21°C° 0 mm 1 mps 731 mmHg 84%
    01:00 +20°C° 0 mm 1 mps 731 mmHg 84%
    02:00 +20°C° 0 mm 1 mps 731 mmHg 84%
    03:00 +20°C° 0 mm 1 mps 731 mmHg 84%
    04:00 +20°C° 0 mm 1 mps 730 mmHg 84%
    05:00 +21°C° 0 mm 1 mps 730 mmHg 81%
    06:00 +23°C° 0 mm 1 mps 731 mmHg 78%
    07:00 +24°C° 0 mm 1 mps 731 mmHg 75%
    08:00 +26°C° 0 mm 1 mps 731 mmHg 69%
    09:00 +28°C° 0 mm 1 mps 731 mmHg 63%
    10:00 +29°C° 0 mm 2 mps 731 mmHg 58%
    11:00 +29°C° 0.1 mm 2 mps 730 mmHg 58%
    12:00 +30°C° 0.1 mm 2 mps 730 mmHg 59%
    13:00 +30°C° 0.1 mm 2 mps 730 mmHg 59%
    14:00 +30°C° 0.5 mm 2 mps 730 mmHg 62%
    15:00 +30°C° 0.5 mm 2 mps 730 mmHg 64%
    16:00 +30°C° 0.5 mm 1 mps 730 mmHg 67%
    17:00 +29°C° 1.1 mm 1 mps 730 mmHg 72%
    18:00 +28°C° 1.1 mm 1 mps 730 mmHg 77%
    19:00 +27°C° 1.1 mm 1 mps 730 mmHg 83%
    20:00 +25°C° 1.3 mm 1 mps 730 mmHg 85%
    21:00 +24°C° 1.3 mm 1 mps 731 mmHg 87%
    22:00 +23°C° 1.3 mm 1 mps 731 mmHg 90%
    23:00 +23°C° 1.1 mm 1 mps 731 mmHg 90%
    Show more